This demonstration page uses our WeatherBlox Daily Observations layout. Learn more.

36.17497, -115.13722

Hourly Observations for July 20, 2019

Temp ( °F °C ) Dew Point ( °F °C ) Humidity (%) Winds ( mph kmh ) Pressure ( in mb ) Visibility ( mi km ) Precip ( " mm )
12:53 am 00:53 Clear 88 31.1 32 0 13 13 SSW 7 11 29.71 1006 10 16.09344 0 0
1:53 am 01:53 Clear 86 30 33 0.6 15 15 SW 7 11 29.74 1007 10 16.09344 0 0
2:53 am 02:53 Clear 83 28.3 34 1.1 17 17 E 7 11 29.74 1007 10 16.09344 0 0
3:53 am 03:53 Clear 80 26.7 36 2.2 20 20 NNW 3 6 29.74 1007 10 16.09344 0 0
4:53 am 04:53 Clear 77 25 36 2.2 23 23 NW 6 9 29.77 1008 10 16.09344 0 0
5:53 am 05:53 Sunny 76 24.4 36 2.2 23 23 Calm 29.77 1008 10 16.09344 0 0
6:53 am 06:53 Sunny 78 25.6 38 3.3 24 24 Calm 29.8 1009 10 16.09344 0 0
7:53 am 07:53 Sunny 83 28.3 38 3.3 20 20 Calm 29.8 1009 10 16.09344 0 0
8:53 am 08:53 Sunny 86 30 40 4.4 20 20 E 5 7 29.83 1010 10 16.09344 0 0
9:53 am 09:53 Sunny 90 32.2 42 5.6 19 19 VRB 5 7 29.83 1010 10 16.09344 0 0
10:53 am 10:53 Sunny 93 33.9 40 4.4 16 16 ESE 5 7 29.83 1010 10 16.09344 0 0
11:53 am 11:53 Sunny 96 35.6 37 2.8 13 13 Calm 29.8 1009 10 16.09344 0 0
12:53 pm 12:53 Sunny 99 37.2 34 1.1 10 10 S 15 24 29.77 1008 10 16.09344 0 0
1:53 pm 13:53 Sunny 102 38.9 34 1.1 9 9 S 17 28 29.77 1008 10 16.09344 0 0
2:53 pm 14:53 Sunny 103 39.4 31 -0.6 8 8 SSW 10 17 29.74 1007 10 16.09344 0 0
3:53 pm 15:53 Sunny 103 39.4 32 0 8 8 SW 14 22 29.71 1006 10 16.09344 0 0
4:53 pm 16:53 Sunny 103 39.4 29 -1.7 7 7 SW 9 15 29.71 1006 10 16.09344 0 0
5:53 pm 17:53 Sunny 102 38.9 28 -2.2 7 7 SW 12 19 29.71 1006 10 16.09344 0 0
6:53 pm 18:53 Sunny 102 38.9 28 -2.2 7 7 SSW 9 15 29.71 1006 10 16.09344 0 0
7:53 pm 19:53 Sunny 99 37.2 29 -1.7 8 8 SW 7 11 29.71 1006 10 16.09344 0 0
8:53 pm 20:53 Clear 97 36.1 30 -1.1 9 9 SSW 7 11 29.71 1006 10 16.09344 0 0
9:53 pm 21:53 Clear 94 34.4 32 0 11 11 SW 8 13 29.74 1007 10 16.09344 0 0
10:53 pm 22:53 Clear 92 33.3 33 0.6 12 12 SSW 7 11 29.77 1008 10 16.09344 0 0
11:53 pm 23:53 Clear 90 32.2 32 0 13 13 SSW 8 13 29.77 1008 10 16.09344 0 0

Powered by AerisWeather